[[{"header":{"parameterUnit":"m.s-1","parameterCategory":2,"la1":30.2991,"la2":30.254,"lo1":-89.0895,"lo2":-89.0444,"dy":0.0017,"dx":0.0017,"nx":28,"ny":28,"refTime":"2024-05-23T21:00:00:Z","depth":"0","parameterNumber":2,"parameterNumberName":"U-component_of_CURRENTS"},"data":[0,0,0,0,0,0,0,0,0,0,0,0,0,0,0,0,0,0,0,0,0,0,0,0,0,0,0,0,0,0,0,0,0,0,0,0,0,0,0,0,0,0,0,0,0,0,0,0,0,0,0,0,0,0,0,0,0,0,-0.244,-0.2441,0,-0.2469,-0.2469,-0.2469,-0.2443,-0.2442,-0.2441,-0.2441,-0.2405,-0.2405,-0.2405,0,0,0,0,0,0,0,0,0,0,0,0,0,-0.2343,-0.2345,-0.244,-0.2441,-0.2441,-0.2469,-0.2469,-0.2469,-0.2443,-0.2442,-0.2441,-0.244,-0.2405,-0.2405,-0.2405,0,0,0,0,0,0,0,0,0,0,0,0,0,-0.2377,-0.2346,-0.244,-0.2434,-0.2434,-0.2469,-0.2469,-0.2469,-0.2443,-0.2442,-0.2441,-0.244,-0.2405,-0.2405,-0.2404,-0.2424,0,0,-0.2403,-0.2403,0,0,0,0,0,0,0,0,-0.2375,-0.238,-0.2435,-0.2435,-0.2435,-0.2454,-0.2422,-0.2452,-0.2443,-0.2436,-0.2441,-0.2439,-0.2419,-0.2417,-0.2421,-0.2422,-0.2421,-0.2403,-0.2403,-0.2403,-0.2403,0,0,0,0,0,0,0,-0.2373,-0.2378,-0.2448,-0.2435,-0.2436,-0.2424,-0.2428,-0.2428,-0.2429,-0.2436,-0.2436,-0.2445,-0.2418,-0.2421,-0.242,-0.242,-0.2403,-0.2403,-0.2403,-0.2403,-0.2433,-0.2434,0,0,0,0,0,0,-0.2379,-0.2377,-0.2447,-0.2449,-0.2406,-0.2427,-0.2431,-0.2446,-0.243,-0.2429,-0.2446,-0.2444,-0.2423,-0.242,-0.2418,-0.2438,-0.2403,-0.2402,-0.2402,-0.2432,-0.2433,-0.2435,0,0,0,0,0,0,-0.2377,-0.2385,-0.2446,-0.2416,-0.2423,-0.2431,-0.2448,-0.2448,-0.2449,-0.2439,-0.2435,-0.2448,-0.2422,-0.2419,-0.2423,-0.2436,-0.2402,-0.2402,-0.2431,-0.2433,-0.2434,-0.2479,0,0,0,0,0,0,-0.2374,-0.2385,-0.2392,-0.2417,-0.2425,-0.247,-0.2449,-0.2449,-0.2459,-0.2456,-0.244,-0.2436,-0.242,-0.2424,-0.2423,-0.2435,-0.2402,-0.243,-0.2432,-0.2434,-0.2476,-0.2482,-0.2487,0,0,0,0,0,-0.2371,-0.2389,-0.2392,-0.2401,-0.2438,-0.2471,-0.2474,-0.2472,-0.246,-0.2468,-0.2458,-0.2436,-0.2436,-0.2425,-0.2423,-0.2435,-0.2429,-0.2431,-0.2433,-0.2474,-0.2481,-0.2487,0,0,0,0,0,0,-0.2346,-0.2389,-0.2393,-0.2422,-0.2446,-0.2468,-0.2475,-0.2477,-0.2477,-0.247,-0.2451,-0.2448,-0.2456,-0.2444,-0.2433,-0.2451,-0.2428,-0.243,-0.2459,-0.2466,-0.2471,-0.2469,-0.2401,0,0,0,0,0,-0.2348,-0.2372,-0.2409,-0.2429,-0.2445,-0.2461,-0.2472,-0.2477,-0.2485,-0.2483,-0.2473,-0.2465,-0.2467,-0.2464,-0.2462,-0.2474,-0.2447,-0.2481,-0.2487,-0.2491,-0.2489,-0.2475,-0.2478,-0.2442,-0.2442,-0.2442,0,0,-0.234,-0.237,-0.238,-0.2426,-0.2441,-0.2475,-0.2463,-0.2488,-0.2508,-0.248,-0.2492,-0.2483,-0.2475,-0.2488,-0.249,-0.2477,-0.2485,-0.2494,-0.2498,-0.2493,-0.2477,-0.248,-0.2483,-0.2444,-0.2444,-0.2443,0,0,-0.2348,-0.2369,-0.2395,-0.2426,-0.2465,-0.248,-0.2491,-0.2518,-0.2519,-0.254,-0.2523,-0.2523,-0.2526,-0.2522,-0.2521,-0.2556,-0.2514,-0.2556,-0.258,-0.2566,-0.2568,-0.257,-0.2526,-0.2524,-0.2558,-0.2558,-0.2558,0,-0.2335,-0.2382,-0.2406,-0.2447,-0.2472,-0.2487,-0.2522,-0.2536,-0.2556,-0.2559,-0.2547,-0.2551,-0.2543,-0.2556,-0.2569,-0.2566,-0.2542,-0.2555,-0.2571,-0.2573,-0.2574,-0.2529,-0.2525,-0.2561,-0.256,-0.256,-0.256,0,-0.2373,-0.2409,-0.2429,-0.2486,-0.2514,-0.2547,-0.258,-0.2594,-0.2596,-0.2605,-0.2613,-0.2603,-0.26,-0.2604,-0.2598,-0.2608,-0.258,-0.258,-0.2552,-0.258,-0.253,-0.2526,-0.2564,-0.2563,-0.2562,-0.2562,0,0,-0.2329,-0.2436,-0.2437,-0.2472,-0.2539,-0.2562,-0.2603,-0.2636,-0.2645,-0.2657,-0.2659,-0.2673,-0.2656,-0.2654,-0.2642,-0.2634,-0.2619,-0.2614,-0.2612,-0.2564,-0.2564,-0.2484,-0.2471,-0.2622,-0.2622,-0.2622,-0.2521,0,-0.2343,-0.2424,-0.2475,-0.2533,-0.2574,-0.2612,-0.2645,-0.2675,-0.2683,-0.2686,-0.268,-0.2678,-0.2679,-0.2669,-0.2667,-0.2635,-0.2612,-0.2644,-0.255,-0.2546,-0.2467,-0.2465,-0.2337,-0.2232,-0.2517,-0.2516,-0.2516,0,-0.2351,-0.2408,-0.2476,-0.2559,-0.2578,-0.2612,-0.265,-0.2685,-0.2704,-0.2708,-0.271,-0.2699,-0.2696,-0.2682,-0.2644,-0.2665,-0.2617,-0.2586,-0.2582,-0.2487,-0.2458,-0.2254,-0.2213,-0.22,-0.2508,-0.2509,-0.251,0,-0.229,-0.2396,-0.2447,-0.248,-0.2579,-0.2602,-0.2641,-0.2678,-0.2698,-0.2709,-0.271,-0.2708,-0.2689,-0.2659,-0.2606,-0.2625,-0.2537,-0.2552,-0.2427,-0.242,-0.2281,-0.2261,-0.2209,-0.2505,-0.2505,-0.2505,-0.2506,0,-0.2277,-0.2309,-0.2422,-0.2447,-0.2489,-0.2568,-0.2595,-0.2631,-0.2671,-0.2664,-0.2708,-0.2684,-0.2684,-0.2637,-0.2596,-0.2488,-0.2527,-0.2418,-0.239,-0.2291,-0.2275,-0.2234,-0.2276,-0.2502,-0.2502,-0.2503,-0.2504,0,-0.2189,-0.2274,-0.2331,-0.2437,-0.2462,-0.2483,-0.2568,-0.2571,-0.2639,-0.2626,-0.2628,-0.2659,-0.2593,-0.2567,-0.2491,-0.2453,-0.2322,-0.2315,-0.2184,-0.2142,-0.2028,-0.2078,-0.2009,-0.1955,-0.2168,-0.2165,-0.2163,0,-0.215,-0.2176,-0.2288,-0.2296,-0.2338,-0.2391,-0.2404,-0.2518,-0.2528,-0.2583,-0.2554,-0.253,-0.2443,-0.2333,-0.2257,-0.2147,-0.2183,-0.1993,-0.2014,-0.1991,-0.2027,-0.2082,-0.2047,-0.1838,-0.1833,-0.183,-0.1826,0,-0.2052,-0.2095,-0.2133,-0.2151,-0.2176,-0.2196,-0.224,-0.2246,-0.234,-0.235,-0.2309,-0.2254,-0.2201,-0.2044,-0.1953,-0.1884,-0.1954,-0.1912,-0.1923,-0.179,-0.181,-0.1753,-0.193,-0.1793,-0.1796,-0.1798,-0.18,-0.1802,-0.194,-0.194,-0.1966,-0.196,-0.1969,-0.1899,-0.1839,-0.1859,-0.1819,-0.171,-0.1947,-0.1791,-0.1895,-0.1741,-0.169,-0.1583,-0.1679,-0.1539,-0.1604,-0.1664,-0.1608,-0.17,-0.1521,-0.1523,-0.1524,-0.1526,-0.1527,0,-0.177,-0.1769,-0.1756,-0.1711,-0.1605,-0.1682,-0.1635,-0.1527,-0.1346,-0.1285,-0.1246,-0.1334,-0.1288,-0.1368,-0.137,-0.1308,-0.1302,-0.1291,-0.1342,-0.1323,-0.1404,-0.1384,-0.1124,-0.1124,-0.1124,-0.1124,-0.1124,-0.1124,-0.1673,-0.159,-0.1579,-0.1331,-0.1282,-0.1097,-0.101,-0.0851,-0.0763,-0.0547,-0.0495,-0.0564,-0.093,-0.1276,-0.1281,-0.1218,-0.123,-0.1167,-0.1243,-0.1314,-0.1343,-0.1371,-0.136,-0.1099,-0.1099,-0.1076,-0.1076,-0.1077]},{"header":{"parameterUnit":"m.s-1","parameterCategory":2,"la1":30.2991,"la2":30.254,"lo1":-89.0895,"lo2":-89.0444,"dy":0.0017,"dx":0.0017,"nx":28,"ny":28,"refTime":"2024-05-23T21:00:00:Z","depth":"0","parameterNumber":3,"parameterNumberName":"V-component_of_CURRENTS"},"data":[0,0,0,0,0,0,0,0,0,0,0,0,0,0,0,0,0,0,0,0,0,0,0,0,0,0,0,0,0,0,0,0,0,0,0,0,0,0,0,0,0,0,0,0,0,0,0,0,0,0,0,0,0,0,0,0,0,0,-0.0038,-0.0037,0,0.005,0.0051,0.0052,0.0121,0.0121,0.0122,0.0122,0.0244,0.0246,0.0249,0,0,0,0,0,0,0,0,0,0,0,0,0,-0.0096,-0.0096,-0.0038,-0.0037,-0.0036,0.005,0.0051,0.0052,0.0121,0.0121,0.0122,0.0123,0.0243,0.0246,0.0249,0,0,0,0,0,0,0,0,0,0,0,0,0,-0.0045,-0.0095,-0.0038,0.0008,0.0013,0.0049,0.0051,0.0053,0.012,0.0121,0.0122,0.0123,0.0242,0.0245,0.0249,0.0257,0,0,0.0262,0.0264,0,0,0,0,0,0,0,0,-0.0048,-0.0043,0.0,0.0005,0.001,0.0074,0.0075,0.0122,0.012,0.0081,0.0122,0.0123,0.0189,0.0197,0.0213,0.0263,0.0268,0.0262,0.0265,0.0266,0.0268,0,0,0,0,0,0,0,-0.0052,-0.0046,-0.0002,0.0001,0.0007,0.0041,0.0049,0.0084,0.013,0.0084,0.0089,0.0097,0.0192,0.0209,0.0216,0.027,0.0262,0.0266,0.0268,0.027,0.035,0.035,0,0,0,0,0,0,-0.0068,-0.005,-0.0005,0.0001,-0.0019,0.0041,0.005,0.0054,0.0129,0.0141,0.0096,0.01,0.0201,0.0211,0.0221,0.0239,0.0266,0.027,0.0273,0.035,0.035,0.0349,0,0,0,0,0,0,-0.007,-0.0065,-0.0008,-0.0023,-0.0013,0.0041,0.0045,0.0055,0.0072,0.0138,0.0151,0.0103,0.0202,0.0215,0.025,0.0244,0.0272,0.0276,0.0351,0.035,0.035,0.0272,0,0,0,0,0,0,-0.0072,-0.0067,-0.0073,-0.0024,-0.0013,0.0003,0.0044,0.0056,0.0075,0.0081,0.0148,0.016,0.0204,0.0244,0.0254,0.025,0.0279,0.0351,0.035,0.035,0.0275,0.0269,0.0264,0,0,0,0,0,-0.0075,-0.0092,-0.0074,-0.0069,-0.0023,0.0002,0.001,0.0053,0.0074,0.0074,0.0123,0.0158,0.0248,0.0247,0.0259,0.0256,0.0351,0.0351,0.035,0.0277,0.027,0.0264,0,0,0,0,0,0,-0.0123,-0.0085,-0.0065,-0.007,-0.004,0.0013,0.0014,0.0045,0.0083,0.0089,0.0154,0.0169,0.0196,0.0235,0.0232,0.0277,0.0305,0.0307,0.0246,0.024,0.0234,0.0227,0.0282,0,0,0,0,0,-0.0138,-0.014,-0.0095,-0.0101,-0.0089,-0.0039,-0.0025,0.0004,0.0046,0.0064,0.0112,0.0162,0.0202,0.0228,0.0266,0.029,0.034,0.0297,0.0291,0.0286,0.0289,0.0358,0.0359,0.0347,0.0347,0.0347,0,0,-0.0159,-0.0139,-0.0139,-0.0111,-0.0085,-0.0078,-0.0028,-0.0014,-0.0004,0.007,0.0094,0.014,0.0203,0.023,0.0246,0.0264,0.0313,0.0285,0.028,0.0286,0.0358,0.0359,0.036,0.0347,0.0347,0.0347,0,0,-0.0209,-0.0184,-0.0204,-0.0181,-0.015,-0.0115,-0.0115,-0.0066,-0.004,-0.0013,0.0044,0.0088,0.0145,0.0195,0.0226,0.0214,0.0277,0.0221,0.0194,0.0261,0.0263,0.0265,0.0318,0.0326,0.0224,0.0224,0.0224,0,-0.0238,-0.0251,-0.0207,-0.0216,-0.0201,-0.0137,-0.0148,-0.0114,-0.0059,-0.0035,-0.0018,0.0083,0.013,0.0184,0.0179,0.0202,0.0246,0.0212,0.0254,0.0257,0.0261,0.0315,0.0324,0.022,0.0221,0.0221,0.0221,0,-0.0296,-0.0303,-0.0313,-0.0299,-0.0276,-0.0277,-0.022,-0.0196,-0.0155,-0.011,-0.0056,0.0015,0.0081,0.0099,0.0136,0.0184,0.0208,0.0233,0.0268,0.0257,0.0315,0.0326,0.0215,0.0216,0.0217,0.0218,0,0,-0.0368,-0.0359,-0.0362,-0.0364,-0.0319,-0.0306,-0.0284,-0.024,-0.0214,-0.0158,-0.0118,-0.0048,0.0004,0.0044,0.0102,0.016,0.0216,0.0201,0.0206,0.0249,0.0357,0.0399,0.0416,0.025,0.0252,0.0253,0.0383,0,-0.0429,-0.0474,-0.0437,-0.0458,-0.0471,-0.0395,-0.0376,-0.0321,-0.0259,-0.0205,-0.0117,-0.0064,-0.0019,0.0014,0.0079,0.0186,0.0244,0.0178,0.0367,0.0372,0.0408,0.043,0.0489,0.0613,0.0395,0.0397,0.0398,0,-0.0494,-0.0515,-0.0557,-0.0533,-0.0528,-0.0521,-0.0457,-0.0428,-0.0329,-0.0279,-0.0198,-0.0122,-0.0027,0.0008,0.0186,0.0142,0.0239,0.032,0.0328,0.0405,0.0436,0.0593,0.0643,0.08,0.0416,0.0415,0.0413,0,-0.0571,-0.0587,-0.0624,-0.0619,-0.0586,-0.0577,-0.0547,-0.0459,-0.0422,-0.0322,-0.0276,-0.0153,-0.0078,0.0053,0.022,0.0206,0.0419,0.0426,0.0555,0.0559,0.0667,0.0678,0.0891,0.055,0.0549,0.0549,0.0549,0,-0.0645,-0.067,-0.0667,-0.0687,-0.0711,-0.0651,-0.0638,-0.0584,-0.0493,-0.0425,-0.0323,-0.0236,-0.0061,0.0085,0.0219,0.043,0.0425,0.0562,0.0604,0.064,0.0646,0.0833,0.088,0.0554,0.0553,0.0552,0.0551,0,-0.0718,-0.0721,-0.0761,-0.0755,-0.0754,-0.0767,-0.0713,-0.0677,-0.0595,-0.0499,-0.0469,-0.029,-0.0086,0.0092,0.0328,0.044,0.0731,0.0696,0.0718,0.076,0.1007,0.1045,0.1276,0.1378,0.0857,0.0858,0.086,0,-0.0759,-0.0794,-0.0825,-0.0836,-0.0836,-0.084,-0.0819,-0.0747,-0.0686,-0.0509,-0.0453,-0.0255,-0.0062,0.0274,0.0505,0.0752,0.0849,0.0925,0.0911,0.1046,0.112,0.1131,0.12,0.1023,0.1026,0.1028,0.103,0,-0.0825,-0.0835,-0.0862,-0.0891,-0.0894,-0.0892,-0.0853,-0.0824,-0.0685,-0.0568,-0.0342,-0.0181,0.014,0.0466,0.0738,0.0874,0.1049,0.0979,0.1136,0.1285,0.1299,0.1408,0.0895,0.1051,0.1049,0.1047,0.1046,0.1045,-0.0849,-0.0879,-0.0892,-0.091,-0.0914,-0.0878,-0.0843,-0.0748,-0.062,-0.0363,-0.0208,0.0139,0.0471,0.0882,0.1034,0.1329,0.1254,0.1413,0.1452,0.1454,0.1548,0.1065,0.1253,0.1252,0.1251,0.125,0.125,0,-0.0831,-0.0852,-0.0886,-0.0881,-0.0857,-0.0862,-0.0794,-0.0699,-0.0495,-0.0234,0.0062,0.0638,0.0999,0.1275,0.1633,0.1804,0.1833,0.1862,0.1912,0.1965,0.1575,0.1579,0.1826,0.1826,0.1826,0.1826,0.1825,0.1825,-0.081,-0.082,-0.0835,-0.0792,-0.0782,-0.0703,-0.0645,-0.0488,-0.029,0.0164,0.0564,0.0884,0.1268,0.1834,0.2196,0.2224,0.2392,0.234,0.2423,0.2168,0.2129,0.2092,0.2111,0.2465,0.2466,0.2821,0.2824,0.2827]}],[{"header":{"parameterUnit":"m.s-1","parameterCategory":2,"la1":30.2991,"la2":30.254,"lo1":-89.0895,"lo2":-89.0444,"dy":0.0017,"dx":0.0017,"nx":28,"ny":28,"refTime":"2024-05-23T21:00:00:Z","depth":"2","parameterNumber":2,"parameterNumberName":"U-component_of_CURRENTS"},"data":[0,0,0,0,0,0,0,0,0,0,0,0,0,0,0,0,0,0,0,0,0,0,0,0,0,0,0,0,0,0,0,0,0,0,0,0,0,0,0,0,0,0,0,0,0,0,0,0,0,0,0,0,0,0,0,0,0,0,-0.2345,-0.2345,0,-0.2379,-0.2379,-0.2379,-0.2363,-0.2362,-0.2361,-0.2361,-0.2341,-0.2341,-0.2341,0,0,0,0,0,0,0,0,0,0,0,0,0,-0.2252,-0.2254,-0.2344,-0.2345,-0.2346,-0.2379,-0.2379,-0.2379,-0.2363,-0.2362,-0.2361,-0.236,-0.2341,-0.2341,-0.2341,0,0,0,0,0,0,0,0,0,0,0,0,0,-0.2287,-0.2254,-0.2344,-0.2344,-0.2344,-0.2379,-0.2379,-0.238,-0.2363,-0.2362,-0.2361,-0.236,-0.2341,-0.2341,-0.2341,-0.236,0,0,-0.2342,-0.2342,0,0,0,0,0,0,0,0,-0.2285,-0.229,-0.2343,-0.2344,-0.2345,-0.2368,-0.234,-0.2371,-0.2363,-0.2353,-0.2361,-0.236,-0.2348,-0.2347,-0.2352,-0.2359,-0.2359,-0.2342,-0.2342,-0.2342,-0.2342,0,0,0,0,0,0,0,-0.2283,-0.2289,-0.2355,-0.2344,-0.2345,-0.2338,-0.2342,-0.2346,-0.2352,-0.2353,-0.2353,-0.2362,-0.2347,-0.2352,-0.2352,-0.2358,-0.2342,-0.2342,-0.2342,-0.2342,-0.2383,-0.2384,0,0,0,0,0,0,-0.2287,-0.2287,-0.2354,-0.2356,-0.2316,-0.2341,-0.2345,-0.2359,-0.2353,-0.2352,-0.2363,-0.2361,-0.2353,-0.2352,-0.2351,-0.2378,-0.2342,-0.2342,-0.2342,-0.2382,-0.2383,-0.2385,0,0,0,0,0,0,-0.2285,-0.2293,-0.2353,-0.2324,-0.2332,-0.2344,-0.236,-0.236,-0.2368,-0.2361,-0.2359,-0.237,-0.2352,-0.2351,-0.2362,-0.2377,-0.2342,-0.2342,-0.2381,-0.2383,-0.2384,-0.2429,0,0,0,0,0,0,-0.2282,-0.2292,-0.2301,-0.2325,-0.2334,-0.2379,-0.2361,-0.2362,-0.2376,-0.2374,-0.2366,-0.2364,-0.2351,-0.2362,-0.2362,-0.2376,-0.2342,-0.238,-0.2382,-0.2383,-0.2426,-0.2432,-0.2437,0,0,0,0,0,-0.2279,-0.2297,-0.2301,-0.2309,-0.2346,-0.238,-0.2384,-0.2386,-0.2377,-0.2387,-0.2383,-0.2364,-0.2374,-0.2363,-0.2363,-0.2377,-0.2379,-0.2381,-0.2383,-0.2424,-0.2431,-0.2437,0,0,0,0,0,0,-0.2258,-0.2298,-0.2303,-0.2331,-0.2356,-0.2378,-0.2389,-0.2393,-0.2399,-0.2394,-0.238,-0.2378,-0.2393,-0.2383,-0.2371,-0.2396,-0.2373,-0.2375,-0.2404,-0.241,-0.2415,-0.2413,-0.2342,0,0,0,0,0,-0.2261,-0.2284,-0.2319,-0.234,-0.2355,-0.2373,-0.2386,-0.2393,-0.2404,-0.2406,-0.2401,-0.2398,-0.2404,-0.2404,-0.2406,-0.2422,-0.2396,-0.2431,-0.2437,-0.2441,-0.244,-0.2427,-0.243,-0.2392,-0.2392,-0.2392,0,0,-0.2256,-0.2283,-0.2293,-0.2337,-0.2354,-0.2387,-0.2377,-0.2405,-0.2427,-0.2403,-0.2423,-0.2418,-0.2413,-0.243,-0.2436,-0.2422,-0.2437,-0.2444,-0.2448,-0.2445,-0.243,-0.2433,-0.2436,-0.2394,-0.2394,-0.2393,0,0,-0.2266,-0.2286,-0.2312,-0.2341,-0.238,-0.2396,-0.2408,-0.2437,-0.2442,-0.2468,-0.2455,-0.2459,-0.2469,-0.2467,-0.2468,-0.2505,-0.2467,-0.2507,-0.2531,-0.2518,-0.2521,-0.2523,-0.2482,-0.248,-0.2508,-0.2508,-0.2509,0,-0.2256,-0.23,-0.2322,-0.2362,-0.2387,-0.2404,-0.2439,-0.2456,-0.2482,-0.2487,-0.2478,-0.2491,-0.2487,-0.2503,-0.2518,-0.2516,-0.2493,-0.2506,-0.2524,-0.2526,-0.2527,-0.2485,-0.2482,-0.2511,-0.2511,-0.251,-0.251,0,-0.2293,-0.2329,-0.2348,-0.2403,-0.2432,-0.2465,-0.2499,-0.2518,-0.2524,-0.2535,-0.255,-0.2545,-0.2547,-0.2552,-0.2548,-0.2561,-0.2535,-0.2533,-0.2505,-0.2533,-0.2487,-0.2484,-0.2514,-0.2514,-0.2513,-0.2512,0,0,-0.2256,-0.2355,-0.2357,-0.2391,-0.2457,-0.2481,-0.2525,-0.2561,-0.2573,-0.2591,-0.2598,-0.2618,-0.2604,-0.2604,-0.2594,-0.2587,-0.2576,-0.2568,-0.2566,-0.2522,-0.2526,-0.2444,-0.2431,-0.2578,-0.2578,-0.2578,-0.2485,0,-0.2272,-0.2348,-0.2395,-0.2455,-0.2495,-0.2533,-0.2569,-0.2602,-0.2614,-0.2623,-0.2621,-0.2625,-0.2627,-0.262,-0.262,-0.2591,-0.2571,-0.26,-0.251,-0.2507,-0.2426,-0.2426,-0.2249,-0.2146,-0.2481,-0.2481,-0.248,0,-0.2281,-0.2335,-0.2401,-0.2483,-0.2501,-0.2536,-0.258,-0.2616,-0.2641,-0.2648,-0.2655,-0.2647,-0.2649,-0.2636,-0.2602,-0.2621,-0.2578,-0.2548,-0.2544,-0.2448,-0.2418,-0.2175,-0.2126,-0.2474,-0.2474,-0.2475,-0.2475,0,-0.2229,-0.2329,-0.2379,-0.241,-0.2507,-0.253,-0.2571,-0.2612,-0.2636,-0.2652,-0.2657,-0.2659,-0.2645,-0.2618,-0.2569,-0.2586,-0.2505,-0.2518,-0.2395,-0.2388,-0.2208,-0.2185,-0.2476,-0.2476,-0.2476,-0.2476,-0.2477,0,-0.2218,-0.2251,-0.2357,-0.2382,-0.2422,-0.2503,-0.2533,-0.2569,-0.2616,-0.2622,-0.2658,-0.2641,-0.2642,-0.2599,-0.2559,-0.2455,-0.2495,-0.2388,-0.236,-0.2218,-0.2198,-0.2466,-0.2466,-0.2473,-0.2474,-0.2474,-0.2475,0,-0.214,-0.2219,-0.2272,-0.2373,-0.2398,-0.2419,-0.2506,-0.2522,-0.2588,-0.2592,-0.2598,-0.2623,-0.2559,-0.2531,-0.2461,-0.2423,-0.2343,-0.2289,-0.2109,-0.2062,-0.2236,-0.224,-0.2152,-0.2148,-0.2145,-0.2143,-0.2141,0,-0.2106,-0.213,-0.223,-0.2237,-0.2277,-0.2331,-0.2359,-0.2472,-0.2493,-0.2558,-0.254,-0.2514,-0.2431,-0.2312,-0.2225,-0.2113,-0.2214,-0.1919,-0.193,-0.2222,-0.2204,-0.2213,-0.222,-0.17,-0.1694,-0.169,-0.1686,0,-0.2013,-0.2048,-0.2077,-0.2105,-0.2136,-0.22,-0.2255,-0.2292,-0.2404,-0.2422,-0.2399,-0.2342,-0.221,-0.201,-0.1895,-0.182,-0.1933,-0.1823,-0.2154,-0.1824,-0.1792,-0.1776,-0.1799,-0.1645,-0.1649,-0.1652,-0.1655,-0.1656,-0.1903,-0.1889,-0.1913,-0.1929,-0.198,-0.2038,-0.2039,-0.2123,-0.2162,-0.2169,-0.2208,-0.2064,-0.1964,-0.1684,-0.1568,-0.1497,-0.1631,-0.1583,-0.1599,-0.1619,-0.1597,-0.1563,-0.1368,-0.137,-0.1372,-0.1374,-0.1375,0,-0.1743,-0.1734,-0.1729,-0.1747,-0.1743,-0.1852,-0.1926,-0.1909,-0.1908,-0.1943,-0.1901,-0.1625,-0.1464,-0.1377,-0.1187,-0.1146,-0.1147,-0.1115,-0.1125,-0.1164,-0.1199,-0.1159,-0.0812,-0.081,-0.0809,-0.0808,0,0,-0.1643,-0.1571,-0.1574,-0.1498,-0.1527,-0.152,-0.1551,-0.154,-0.1546,-0.1493,-0.1418,-0.1479,-0.1379,-0.1136,-0.1042,-0.0908,-0.1044,-0.0861,-0.1308,-0.1362,-0.1397,-0.1453,-0.1433,0,0,0,0,0]},{"header":{"parameterUnit":"m.s-1","parameterCategory":2,"la1":30.2991,"la2":30.254,"lo1":-89.0895,"lo2":-89.0444,"dy":0.0017,"dx":0.0017,"nx":28,"ny":28,"refTime":"2024-05-23T21:00:00:Z","depth":"2","parameterNumber":3,"parameterNumberName":"V-component_of_CURRENTS"},"data":[0,0,0,0,0,0,0,0,0,0,0,0,0,0,0,0,0,0,0,0,0,0,0,0,0,0,0,0,0,0,0,0,0,0,0,0,0,0,0,0,0,0,0,0,0,0,0,0,0,0,0,0,0,0,0,0,0,0,-0.0146,-0.0145,0,-0.0061,-0.006,-0.0059,0.0002,0.0002,0.0003,0.0003,0.0122,0.0125,0.0127,0,0,0,0,0,0,0,0,0,0,0,0,0,-0.0205,-0.0204,-0.0146,-0.0145,-0.0144,-0.0061,-0.006,-0.0059,0.0002,0.0002,0.0003,0.0003,0.0121,0.0124,0.0128,0,0,0,0,0,0,0,0,0,0,0,0,0,-0.0155,-0.0204,-0.0146,-0.0104,-0.01,-0.0061,-0.006,-0.0058,0.0002,0.0002,0.0003,0.0003,0.012,0.0124,0.0128,0.0142,0,0,0.0141,0.0143,0,0,0,0,0,0,0,0,-0.0158,-0.0153,-0.0111,-0.0107,-0.0102,-0.004,-0.0037,0.001,0.0001,-0.0036,0.0003,0.0004,0.007,0.0078,0.0094,0.0147,0.0153,0.0141,0.0144,0.0146,0.0147,0,0,0,0,0,0,0,-0.0161,-0.0156,-0.0111,-0.0111,-0.0105,-0.0073,-0.0066,-0.0028,0.0014,-0.0033,-0.0028,-0.0021,0.0073,0.0089,0.0097,0.0154,0.0141,0.0145,0.0147,0.0149,0.0245,0.0245,0,0,0,0,0,0,-0.0177,-0.0159,-0.0114,-0.0109,-0.013,-0.0073,-0.0064,-0.006,0.0013,0.0024,-0.0021,-0.0018,0.0082,0.0092,0.0101,0.0128,0.0146,0.0149,0.0152,0.0245,0.0245,0.0245,0,0,0,0,0,0,-0.0179,-0.0174,-0.0117,-0.0133,-0.0123,-0.0073,-0.0068,-0.0059,-0.0041,0.0021,0.0033,-0.0014,0.0083,0.0095,0.0135,0.0133,0.0151,0.0155,0.0245,0.0245,0.0245,0.0179,0,0,0,0,0,0,-0.0181,-0.0175,-0.018,-0.0134,-0.0123,-0.0102,-0.0068,-0.0058,-0.0038,-0.0033,0.0032,0.0043,0.0084,0.0128,0.0139,0.0139,0.0158,0.0245,0.0245,0.0245,0.0181,0.0176,0.0173,0,0,0,0,0,-0.0184,-0.0196,-0.0181,-0.0176,-0.0131,-0.0103,-0.0094,-0.0055,-0.0038,-0.0036,0.0011,0.0041,0.0137,0.0132,0.0144,0.0146,0.0245,0.0245,0.0245,0.0183,0.0177,0.0173,0,0,0,0,0,0,-0.0225,-0.0189,-0.0173,-0.0173,-0.0144,-0.0093,-0.009,-0.0062,-0.0023,-0.0018,0.0042,0.0057,0.0089,0.0127,0.012,0.0174,0.0195,0.0198,0.0144,0.0139,0.0135,0.0125,0.0162,0,0,0,0,0,-0.0238,-0.0237,-0.0195,-0.0197,-0.0186,-0.0139,-0.0124,-0.0097,-0.0056,-0.0039,0.0008,0.0057,0.0099,0.0125,0.0165,0.0195,0.0237,0.0205,0.0201,0.0197,0.0198,0.026,0.0261,0.0245,0.0245,0.0245,0,0,-0.0255,-0.0236,-0.0235,-0.0206,-0.018,-0.017,-0.0128,-0.0111,-0.0098,-0.0032,-0.0003,0.0041,0.0102,0.0135,0.0154,0.0168,0.0222,0.0197,0.0193,0.0197,0.026,0.0262,0.0263,0.0245,0.0245,0.0245,0,0,-0.0295,-0.0273,-0.0287,-0.0264,-0.0232,-0.0199,-0.0198,-0.015,-0.0125,-0.0093,-0.0042,0.0003,0.0063,0.0112,0.0143,0.0142,0.0194,0.0151,0.0129,0.0189,0.0191,0.0193,0.0239,0.0246,0.0155,0.0154,0.0154,0,-0.0319,-0.0326,-0.0287,-0.029,-0.0275,-0.0217,-0.0222,-0.0188,-0.0133,-0.011,-0.0095,0.0006,0.0054,0.011,0.0109,0.0133,0.017,0.014,0.0183,0.0186,0.019,0.0236,0.0245,0.0151,0.0152,0.0152,0.0152,0,-0.0363,-0.0366,-0.0372,-0.0355,-0.0332,-0.0328,-0.0273,-0.0249,-0.0211,-0.0169,-0.0114,-0.0044,0.002,0.004,0.0075,0.0123,0.0142,0.0164,0.0192,0.0187,0.0237,0.0247,0.0147,0.0148,0.0149,0.015,0,0,-0.0425,-0.0409,-0.0412,-0.0412,-0.0365,-0.0352,-0.0325,-0.0281,-0.0257,-0.0201,-0.0163,-0.0089,-0.0044,-0.0005,0.0051,0.0104,0.0156,0.0139,0.0144,0.0177,0.028,0.0315,0.033,0.0185,0.0187,0.0188,0.0301,0,-0.0474,-0.0507,-0.0471,-0.0483,-0.0492,-0.0422,-0.0399,-0.0347,-0.029,-0.0238,-0.0156,-0.0105,-0.0062,-0.0031,0.003,0.0128,0.0181,0.0123,0.0286,0.0291,0.0317,0.0342,0.0319,0.042,0.0311,0.0313,0.0314,0,-0.0528,-0.0543,-0.0576,-0.0549,-0.0543,-0.0532,-0.0473,-0.0443,-0.035,-0.0303,-0.0229,-0.0159,-0.0069,-0.0037,0.0126,0.0086,0.0174,0.0247,0.0254,0.0319,0.0345,0.0411,0.0443,0.0331,0.033,0.0329,0.0328,0,-0.0603,-0.0608,-0.0638,-0.063,-0.0594,-0.0584,-0.0555,-0.0472,-0.0437,-0.0344,-0.0302,-0.0188,-0.0118,-0.0001,0.0153,0.0141,0.0334,0.0339,0.0453,0.0456,0.0486,0.0489,0.0451,0.0451,0.045,0.045,0.045,0,-0.0668,-0.0688,-0.0679,-0.0697,-0.0719,-0.0656,-0.0644,-0.0594,-0.0506,-0.045,-0.0345,-0.0266,-0.0104,0.0029,0.015,0.034,0.0337,0.0459,0.0495,0.0461,0.0461,0.0424,0.0419,0.0454,0.0453,0.0452,0.0452,0,-0.0742,-0.0738,-0.0774,-0.0762,-0.0761,-0.0775,-0.0721,-0.0704,-0.0604,-0.0524,-0.0497,-0.0319,-0.0132,0.0033,0.0246,0.0348,0.0512,0.0576,0.0519,0.0547,0.0589,0.058,0.071,0.0713,0.0715,0.0716,0.0718,0,-0.0783,-0.0815,-0.0841,-0.0874,-0.0874,-0.0877,-0.0879,-0.0782,-0.0736,-0.0539,-0.0501,-0.0303,-0.013,0.0184,0.0391,0.0611,0.059,0.0696,0.0674,0.0598,0.062,0.0607,0.0596,0.0683,0.0684,0.0685,0.0685,0,-0.0858,-0.0867,-0.0899,-0.0982,-0.1007,-0.1024,-0.0997,-0.0977,-0.0824,-0.0683,-0.0471,-0.0313,0.0015,0.028,0.0543,0.0655,0.0655,0.0721,0.0681,0.0616,0.058,0.0599,0.0587,0.0692,0.0692,0.0691,0.0691,0.0691,-0.0906,-0.096,-0.1012,-0.1077,-0.1123,-0.1164,-0.1151,-0.1067,-0.095,-0.0703,-0.0497,-0.0209,0.0057,0.0444,0.0642,0.0782,0.0779,0.0795,0.0789,0.0783,0.0755,0.0725,0.0858,0.0858,0.0858,0.0858,0.0859,0,-0.0978,-0.103,-0.1104,-0.1186,-0.1248,-0.1249,-0.1213,-0.1149,-0.0986,-0.0693,-0.041,-0.0103,0.0209,0.044,0.0704,0.0879,0.0841,0.0867,0.0794,0.0786,0.078,0.0748,0.0852,0.0852,0.0852,0.0853,0,0,-0.1019,-0.1108,-0.1144,-0.1264,-0.1323,-0.1375,-0.1349,-0.1198,-0.0971,-0.0658,-0.0391,-0.0068,0.0238,0.0417,0.0638,0.0763,0.0726,0.0754,0.0745,0.0631,0.0623,0.0727,0.067,0,0,0,0,0]}],[{"header":{"parameterUnit":"m.s-1","parameterCategory":2,"la1":30.2991,"la2":30.254,"lo1":-89.0895,"lo2":-89.0444,"dy":0.0017,"dx":0.0017,"nx":28,"ny":28,"refTime":"2024-05-23T21:00:00:Z","depth":"4","parameterNumber":2,"parameterNumberName":"U-component_of_CURRENTS"},"data":[0,0,0,0,0,0,0,0,0,0,0,0,0,0,0,0,0,0,0,0,0,0,0,0,0,0,0,0,0,0,0,0,0,0,0,0,0,0,0,0,0,0,0,0,0,0,0,0,0,0,0,0,0,0,0,0,0,0,-0.17,-0.1701,0,-0.1776,-0.1777,-0.1778,-0.1821,-0.1822,-0.1822,-0.1822,-0.1888,-0.1889,-0.1891,0,0,0,0,0,0,0,0,0,0,0,0,0,-0.1587,-0.1589,-0.17,-0.1701,-0.1702,-0.1776,-0.1777,-0.1778,-0.1821,-0.1822,-0.1822,-0.1822,-0.1887,-0.1889,-0.1891,0,0,0,0,0,0,0,0,0,0,0,0,0,-0.1645,-0.1589,-0.1699,-0.1734,-0.1738,-0.1776,-0.1777,-0.1778,-0.1821,-0.1822,-0.1822,-0.1823,-0.1887,-0.1889,-0.1891,-0.1895,0,0,-0.1898,-0.1899,0,0,0,0,0,0,0,0,-0.1642,-0.1649,-0.1728,-0.1732,-0.1736,-0.1791,-0.1762,-0.1817,-0.1821,-0.1788,-0.1822,-0.1823,-0.1855,-0.186,-0.1871,-0.1898,-0.1901,-0.1898,-0.1899,-0.19,-0.1901,0,0,0,0,0,0,0,-0.1638,-0.1646,-0.1728,-0.1729,-0.1734,-0.1744,-0.1753,-0.1772,-0.1816,-0.179,-0.1794,-0.1806,-0.1857,-0.1869,-0.1873,-0.1902,-0.1898,-0.19,-0.1901,-0.1902,-0.2011,-0.2013,0,0,0,0,0,0,-0.1632,-0.1642,-0.1726,-0.1731,-0.1691,-0.1746,-0.1756,-0.1772,-0.1816,-0.1824,-0.1805,-0.1807,-0.1865,-0.187,-0.1875,-0.1954,-0.19,-0.1902,-0.1903,-0.201,-0.2012,-0.2013,0,0,0,0,0,0,-0.163,-0.1639,-0.1723,-0.1689,-0.1701,-0.1748,-0.1765,-0.1773,-0.1816,-0.1828,-0.1835,-0.1844,-0.1865,-0.1872,-0.1924,-0.1954,-0.1903,-0.1905,-0.2008,-0.201,-0.2013,-0.2066,0,0,0,0,0,0,-0.1626,-0.1638,-0.1661,-0.1689,-0.1703,-0.1767,-0.1765,-0.1774,-0.1821,-0.1825,-0.1863,-0.1868,-0.1866,-0.1921,-0.1926,-0.1956,-0.1907,-0.2006,-0.2009,-0.2012,-0.2062,-0.207,-0.2077,0,0,0,0,0,-0.1622,-0.1649,-0.1662,-0.1673,-0.1729,-0.1769,-0.1777,-0.181,-0.1823,-0.1849,-0.1877,-0.1868,-0.1943,-0.1924,-0.193,-0.1962,-0.2004,-0.2008,-0.2012,-0.2059,-0.2069,-0.2076,0,0,0,0,0,0,-0.1614,-0.1657,-0.1672,-0.1712,-0.1748,-0.1777,-0.1809,-0.1829,-0.1872,-0.1885,-0.1892,-0.1899,-0.1954,-0.1953,-0.1932,-0.2002,-0.1971,-0.1976,-0.2005,-0.2014,-0.2021,-0.2012,-0.1908,0,0,0,0,0,-0.1622,-0.1656,-0.1693,-0.1728,-0.1749,-0.1785,-0.1811,-0.1835,-0.1869,-0.189,-0.1916,-0.1943,-0.1968,-0.1989,-0.201,-0.2052,-0.2025,-0.2076,-0.2083,-0.2089,-0.2086,-0.2079,-0.2085,-0.2025,-0.2025,-0.2025,0,0,-0.1629,-0.1658,-0.1678,-0.173,-0.1761,-0.1801,-0.1803,-0.1854,-0.1892,-0.189,-0.1958,-0.1973,-0.1986,-0.2032,-0.2056,-0.2039,-0.2091,-0.2093,-0.2098,-0.2092,-0.2084,-0.2089,-0.2094,-0.2028,-0.2027,-0.2027,0,0,-0.1651,-0.1687,-0.1721,-0.1756,-0.1812,-0.1834,-0.1856,-0.1906,-0.1937,-0.1996,-0.2001,-0.2036,-0.2085,-0.2094,-0.2103,-0.2164,-0.213,-0.2178,-0.2208,-0.2202,-0.2207,-0.221,-0.2174,-0.2174,-0.2181,-0.2181,-0.2181,0,-0.166,-0.1706,-0.1737,-0.178,-0.1815,-0.1853,-0.1897,-0.1933,-0.1995,-0.2018,-0.2029,-0.2093,-0.211,-0.2146,-0.2171,-0.2179,-0.216,-0.2173,-0.221,-0.2213,-0.2215,-0.2178,-0.2177,-0.2184,-0.2184,-0.2184,-0.2183,0,-0.1698,-0.1749,-0.1774,-0.1838,-0.1879,-0.1927,-0.1975,-0.2022,-0.2062,-0.2088,-0.2146,-0.2166,-0.2197,-0.2213,-0.2216,-0.2247,-0.2222,-0.2218,-0.2183,-0.2224,-0.2183,-0.2181,-0.2189,-0.2187,-0.2187,-0.2186,0,0,-0.1675,-0.178,-0.1791,-0.1833,-0.1917,-0.1949,-0.2018,-0.2077,-0.2112,-0.217,-0.2204,-0.2258,-0.2263,-0.2273,-0.2277,-0.2279,-0.2285,-0.2265,-0.2263,-0.2219,-0.2252,-0.2105,-0.2088,-0.229,-0.229,-0.229,-0.2211,0,-0.1697,-0.1779,-0.1829,-0.1912,-0.1958,-0.2017,-0.2072,-0.213,-0.2173,-0.2214,-0.2238,-0.2275,-0.2287,-0.2302,-0.2311,-0.2295,-0.2284,-0.2305,-0.2226,-0.2223,-0.208,-0.2082,-0.2291,-0.2209,-0.2209,-0.2208,-0.2208,0,-0.1705,-0.1765,-0.1849,-0.1948,-0.1973,-0.2029,-0.2108,-0.2163,-0.2222,-0.2253,-0.229,-0.2303,-0.2329,-0.2325,-0.2313,-0.2328,-0.2297,-0.2274,-0.2271,-0.2111,-0.2072,-0.2163,-0.2204,-0.2204,-0.2204,-0.2205,-0.2205,0,-0.1653,-0.1771,-0.1838,-0.1876,-0.1994,-0.2042,-0.2102,-0.2175,-0.2217,-0.2272,-0.2294,-0.2324,-0.2334,-0.232,-0.2289,-0.2307,-0.2243,-0.2257,-0.2087,-0.2075,-0.2209,-0.2206,-0.223,-0.223,-0.223,-0.2231,-0.2231,0,-0.1634,-0.169,-0.1826,-0.1862,-0.1932,-0.2027,-0.2094,-0.2148,-0.2225,-0.2249,-0.231,-0.2304,-0.2337,-0.2308,-0.2279,-0.216,-0.2234,-0.2076,-0.2043,-0.2232,-0.2233,-0.2206,-0.2204,-0.2228,-0.2228,-0.2229,-0.2229,0,-0.1554,-0.165,-0.173,-0.1867,-0.1909,-0.1957,-0.2085,-0.2117,-0.221,-0.2238,-0.2257,-0.2297,-0.2241,-0.2233,-0.2182,-0.2122,-0.2038,-0.1974,-0.2151,-0.2132,-0.1877,-0.188,-0.1777,-0.1771,-0.1766,-0.1762,-0.1759,0,-0.1517,-0.1555,-0.1704,-0.1735,-0.1801,-0.1894,-0.1943,-0.2081,-0.2108,-0.22,-0.2182,-0.2177,-0.2174,-0.197,-0.1991,-0.1892,-0.1875,-0.1831,-0.188,-0.1851,-0.183,-0.1841,-0.185,-0.1751,-0.1749,-0.1748,-0.1747,0,-0.1426,-0.1491,-0.1543,-0.1617,-0.1684,-0.1753,-0.1838,-0.1861,-0.1991,-0.2105,-0.2041,-0.1996,-0.1914,-0.185,-0.1773,-0.1717,-0.1866,-0.1779,-0.179,-0.1836,-0.1818,-0.1805,-0.1819,-0.1729,-0.1732,-0.1734,-0.1735,0,-0.1336,-0.134,-0.1406,-0.1457,-0.1536,-0.1565,-0.1651,-0.1684,-0.1744,-0.1878,-0.1841,-0.1834,-0.1882,-0.1754,-0.1688,-0.1611,-0.16,-0.1574,-0.1596,-0.1615,-0.1598,-0.1554,-0.1338,0,0,0,0,0,-0.1229,-0.1206,-0.1236,-0.1281,-0.136,-0.1405,-0.1541,-0.1635,-0.179,-0.1697,-0.1774,-0.1689,-0.1594,-0.159,-0.147,-0.1601,-0.1598,-0.1458,-0.158,-0.1633,-0.1653,-0.1649,0,0,0,0,0,0,-0.1144,-0.1152,-0.1169,-0.112,-0.1122,-0.1191,-0.1275,-0.1392,-0.1362,-0.1517,-0.1458,-0.1576,-0.1485,-0.1601,-0.1419,-0.1421,-0.1466,-0.1477,-0.1473,-0.1622,-0.164,-0.1656,-0.1659,0,0,0,0,0]},{"header":{"parameterUnit":"m.s-1","parameterCategory":2,"la1":30.2991,"la2":30.254,"lo1":-89.0895,"lo2":-89.0444,"dy":0.0017,"dx":0.0017,"nx":28,"ny":28,"refTime":"2024-05-23T21:00:00:Z","depth":"4","parameterNumber":3,"parameterNumberName":"V-component_of_CURRENTS"},"data":[0,0,0,0,0,0,0,0,0,0,0,0,0,0,0,0,0,0,0,0,0,0,0,0,0,0,0,0,0,0,0,0,0,0,0,0,0,0,0,0,0,0,0,0,0,0,0,0,0,0,0,0,0,0,0,0,0,0,-0.0148,-0.0147,0,-0.0086,-0.0085,-0.0085,-0.0045,-0.0045,-0.0045,-0.0045,0.0056,0.0058,0.0061,0,0,0,0,0,0,0,0,0,0,0,0,0,-0.0189,-0.0189,-0.0148,-0.0147,-0.0147,-0.0086,-0.0085,-0.0084,-0.0045,-0.0045,-0.0045,-0.0045,0.0055,0.0058,0.0061,0,0,0,0,0,0,0,0,0,0,0,0,0,-0.0153,-0.0189,-0.0148,-0.0121,-0.0118,-0.0086,-0.0085,-0.0084,-0.0045,-0.0045,-0.0045,-0.0045,0.0054,0.0057,0.0061,0.0081,0,0,0.0073,0.0075,0,0,0,0,0,0,0,0,-0.0155,-0.0151,-0.0125,-0.0123,-0.0119,-0.0074,-0.0063,-0.0027,-0.0045,-0.0072,-0.0045,-0.0045,0.0015,0.0022,0.0034,0.0086,0.009,0.0073,0.0076,0.0077,0.0078,0,0,0,0,0,0,0,-0.0158,-0.0153,-0.0122,-0.0125,-0.0121,-0.0097,-0.0092,-0.0056,-0.0028,-0.0069,-0.0067,-0.0062,0.0017,0.003,0.0037,0.0092,0.0073,0.0077,0.0079,0.0081,0.0183,0.0184,0,0,0,0,0,0,-0.017,-0.0156,-0.0124,-0.012,-0.0138,-0.0097,-0.0091,-0.0088,-0.003,-0.0021,-0.0062,-0.006,0.0024,0.0032,0.0041,0.0073,0.0077,0.0081,0.0083,0.0183,0.0183,0.0184,0,0,0,0,0,0,-0.0171,-0.0168,-0.0127,-0.0138,-0.0131,-0.0097,-0.0093,-0.0087,-0.0074,-0.0025,-0.0015,-0.0057,0.0024,0.0035,0.0074,0.0077,0.0083,0.0086,0.0182,0.0183,0.0184,0.0135,0,0,0,0,0,0,-0.0173,-0.0169,-0.0173,-0.0139,-0.0131,-0.0113,-0.0093,-0.0086,-0.0072,-0.0069,-0.0017,-0.0007,0.0025,0.0068,0.0077,0.0083,0.0089,0.0182,0.0183,0.0183,0.0136,0.0134,0.0132,0,0,0,0,0,-0.0174,-0.0181,-0.0174,-0.017,-0.0137,-0.0113,-0.0107,-0.0081,-0.0072,-0.0069,-0.0031,-0.0009,0.008,0.0071,0.0082,0.0089,0.0181,0.0182,0.0183,0.0137,0.0135,0.0132,0,0,0,0,0,0,-0.0201,-0.0177,-0.0168,-0.0167,-0.0145,-0.0107,-0.0104,-0.0085,-0.0053,-0.0051,-0.0004,0.0009,0.0042,0.0074,0.0063,0.0122,0.0134,0.0138,0.0096,0.0094,0.0092,0.0079,0.0092,0,0,0,0,0,-0.021,-0.021,-0.018,-0.0181,-0.0172,-0.014,-0.0128,-0.011,-0.0077,-0.0063,-0.0026,0.0017,0.0056,0.008,0.0116,0.0149,0.018,0.0162,0.016,0.0158,0.0157,0.0206,0.0208,0.0187,0.0187,0.0187,0,0,-0.0221,-0.0209,-0.0209,-0.0187,-0.0169,-0.0158,-0.0132,-0.0118,-0.0105,-0.0057,-0.0029,0.0008,0.0062,0.0097,0.0115,0.0125,0.018,0.0159,0.0157,0.0157,0.0208,0.021,0.0211,0.0188,0.0187,0.0187,0,0,-0.0245,-0.0233,-0.0241,-0.0224,-0.0201,-0.0177,-0.0176,-0.014,-0.0121,-0.009,-0.0051,-0.0011,0.0045,0.0087,0.0116,0.0127,0.0163,0.0137,0.0123,0.0171,0.0173,0.0175,0.0209,0.0215,0.0141,0.0141,0.0141,0,-0.0261,-0.0265,-0.0239,-0.0238,-0.0228,-0.0189,-0.019,-0.0162,-0.0117,-0.01,-0.0089,-0.0,0.0042,0.0095,0.0099,0.0122,0.0149,0.0124,0.0167,0.017,0.0173,0.0207,0.0214,0.0139,0.0139,0.0139,0.014,0,-0.0284,-0.0287,-0.029,-0.0276,-0.0259,-0.0255,-0.0214,-0.0194,-0.0168,-0.0136,-0.0088,-0.0027,0.0026,0.0048,0.0078,0.0123,0.0134,0.0152,0.0168,0.0172,0.0208,0.0216,0.0136,0.0137,0.0137,0.0138,0,0,-0.0322,-0.0311,-0.0314,-0.0316,-0.028,-0.0271,-0.0246,-0.0212,-0.0196,-0.0148,-0.0119,-0.0048,-0.0017,0.0018,0.0065,0.0111,0.0155,0.0136,0.014,0.0161,0.0251,0.0237,0.0245,0.0178,0.0179,0.018,0.0264,0,-0.0351,-0.0373,-0.0347,-0.0355,-0.0362,-0.0313,-0.0294,-0.0255,-0.0212,-0.0173,-0.0106,-0.0064,-0.0026,-0.0002,0.0051,0.0131,0.0174,0.0129,0.0252,0.0256,0.0236,0.0253,0.0184,0.027,0.0272,0.0273,0.0274,0,-0.0382,-0.0396,-0.0419,-0.0404,-0.04,-0.0394,-0.0356,-0.033,-0.0259,-0.0224,-0.0165,-0.0111,-0.0033,-0.0007,0.0128,0.0096,0.0165,0.0225,0.023,0.0241,0.0258,0.027,0.0289,0.0288,0.0287,0.0286,0.0285,0,-0.0437,-0.044,-0.0466,-0.0462,-0.0438,-0.0437,-0.0417,-0.0357,-0.0331,-0.0259,-0.0228,-0.0133,-0.0077,0.0018,0.0145,0.0136,0.0291,0.0297,0.035,0.035,0.0356,0.0353,0.0386,0.0386,0.0386,0.0386,0.0385,0,-0.0475,-0.0495,-0.0501,-0.0517,-0.0545,-0.0498,-0.0497,-0.046,-0.0393,-0.0355,-0.0265,-0.0202,-0.0066,0.0042,0.014,0.0272,0.0291,0.035,0.0374,0.0333,0.0327,0.0362,0.0358,0.0389,0.0388,0.0387,0.0387,0,-0.0526,-0.0528,-0.0565,-0.0569,-0.0577,-0.0598,-0.0569,-0.0558,-0.048,-0.0424,-0.0403,-0.0248,-0.01,0.0035,0.0207,0.0269,0.039,0.0431,0.0373,0.0392,0.0414,0.0407,0.0488,0.0488,0.0489,0.0489,0.0489,0,-0.0551,-0.058,-0.0626,-0.0665,-0.0675,-0.0693,-0.0703,-0.0629,-0.0596,-0.044,-0.0413,-0.0253,-0.0144,0.0096,0.0231,0.0405,0.0428,0.0471,0.0443,0.0411,0.0427,0.0419,0.0411,0.0489,0.049,0.049,0.049,0,-0.0603,-0.0626,-0.0661,-0.075,-0.0788,-0.0811,-0.0804,-0.0783,-0.0666,-0.0589,-0.0403,-0.0251,-0.0076,0.0105,0.0242,0.0368,0.0429,0.0474,0.0474,0.0448,0.0413,0.0427,0.0419,0.0491,0.049,0.049,0.049,0,-0.0644,-0.0691,-0.075,-0.0815,-0.0879,-0.0907,-0.0893,-0.0813,-0.075,-0.055,-0.0485,-0.026,-0.0111,0.0088,0.022,0.0335,0.0355,0.0365,0.0371,0.0372,0.0308,0.0245,0.0296,0,0,0,0,0,-0.0678,-0.0731,-0.0807,-0.0879,-0.0942,-0.0964,-0.0945,-0.0903,-0.078,-0.0659,-0.0558,-0.038,-0.0121,0.001,0.0121,0.0179,0.0331,0.0306,0.0333,0.0496,0.0495,0.0438,0,0,0,0,0,0,-0.0705,-0.0781,-0.0812,-0.0907,-0.0962,-0.1014,-0.1004,-0.0927,-0.083,-0.0682,-0.0538,-0.0383,-0.014,-0.0188,0.0115,0.0158,0.0181,0.0454,0.0455,0.0496,0.0495,0.0495,0.0436,0,0,0,0,0]}]]